{"data":{"norad_id":50169,"intl_designator":"2021-125P","name":"STARLINK-3301","alt_names":[],"object_type":"PAYLOAD","status":"ACTIVE","operator":null,"country":"US","launch_date":"2021-12-18","launch_site_code":"AFWTR","launch_vehicle":null,"mission":null,"orbit_class":"UNKNOWN","rcs_meters":null,"size_class":null,"mass_kg":null,"dimensions":null,"purposes":["comms"],"wikipedia_slug":null,"has_3d_model":false,"image_url":null,"decayed_at":null,"tle_current":{"epoch":"2026-05-25T01:19:50.551680Z","epoch_age_seconds":66258,"freshness":"FRESH","line1":"1 50169U 21125P   26145.05544620 -.00000041  00000+0  15528-4 0  9996","line2":"2 50169  53.2149 266.2982 0000806  75.8512 284.2570 15.08840406248136","mean_motion":15.08840406,"eccentricity":8.06e-5,"inclination_deg":53.2149,"raan_deg":266.2982,"arg_perigee_deg":75.8512,"mean_anomaly_deg":284.257,"bstar":1.5528e-5,"rev_number":24813,"period_min":95.437528997351,"perigee_km":539.18456692548,"apogee_km":540.29972904413,"semimajor_km":6917.8791479848,"source":"CELESTRAK","updated_at":"2026-05-25T13:38:16.843367Z"}}}